Regional Weather Roundup
Issued by NWS

Home | Current Version | Previous Version | Text Only | Print | Product List | Glossary Off
Versions: 1 2 3 4 5 6 7 8 9 10 11 12 13 14 15 16 17 18 19 20 21 22 23 24 25 26 27 28 29 30 31 32 33 34 35 36 37 38 39 40 41 42 43 44 45 46 47 48 49 50

000
ASUS43 KLOT 290304
RWRIL

ILLINOIS REGIONAL WEATHER ROUNDUP
NATIONAL WEATHER SERVICE CHICAGO/ROMEOVILLE IL
1000 PM CDT FRI APR 28 2017

NOTE: "FAIR" INDICATES FEW OR NO CLOUDS BELOW 12,000 FEET WITH NO
SIGNIFICANT WEATHER AND/OR OBSTRUCTIONS TO VISIBILITY.

* THESE STATIONS ARE NOT UNDER NWS QUALITY CONTROL. THEY ALSO MAY NOT
  REPORT WEATHER SUCH AS PRECIPITATION OR FOG.

ILZ001-002-007-009-015-016-024-290400-
NORTHWEST ILLINOIS

CITY           SKY/WX    TMP DP  RH WIND       PRES   REMARKS
MOLINE         CLOUDY    49  46  90 N6        29.96R
STERLING*      CLOUDY    49  47  93 NE13      29.96R
SAVANNA*       DRIZZLE   45  44  97 NE8       29.98R
$$

ILZ003-004-008-010-011-017-018-290400-
NORTH CENTRAL ILLINOIS

CITY           SKY/WX    TMP DP  RH WIND       PRES   REMARKS
ROCKFORD       CLOUDY    48  44  86 NE15      29.99R
FREEPORT*      CLOUDY    45  44  97 N9        29.99R
ROCHELLE*      CLOUDY    49  47  93 NE14      29.96R FOG
DE KALB*       CLOUDY    51  47  87 NE9       29.96R
PERU*          MOCLDY    53  51  90 CALM      29.94R
$$

ILZ005-006-012>014-019>023-290400-
NORTHEAST ILLINOIS

CITY           SKY/WX    TMP DP  RH WIND       PRES   REMARKS
CHICAGO-OHARE  CLOUDY    50  40  68 NE13      29.97R
CHICAGO-MIDWAY CLOUDY    51  43  74 NE12      29.96R
AURORA         CLOUDY    55  47  74 NE9       29.95R
LANSING*       MOCLDY    48  46  91 CALM      29.95R
JOLIET*        CLOUDY    56  49  78 N3        29.94R
WAUKEGAN       CLOUDY    47  40  76 NE8       29.97R
DUPAGE AIRPORT CLOUDY    51  45  79 NE9       29.96R
KANKAKEE*      CLOUDY    55  51  87 CALM      29.92F
WHEELING       CLOUDY    47  42  83 NE9       29.98R
MORRIS*        CLOUDY    56  52  86 CALM      29.93R
NORTHERLY ISL    N/A     47  42  83 MISG        N/A
$$

LMZ740>746-290400-
SOUTHERN LAKE MICHIGAN

STATION/POSITION SKY/WX   TEMP    WIND        PRES    VSBY  WAVE
                          AIR SEA DIR/SP/G                  HT/PER
                          (F)     (DEG/KT/KT) (MB)    (MI)  (FT/S)
SOUTHERN BUOY              43 41   30/ 10/ 10 1014.6          1
HARRISON CRIB              47     350/ 10/ 11   N/A
BURNHAM HARBOR             47     350/  8/ 11   N/A
CALUMET HARBOR             47     350/  5/  9 1013.9R
BURNS HARBOR               48        CALM     1014.6R
MICHIGAN CITY              47      20/  6/  6   N/A
MICHIGAN CITY 6N           46 47                N/A           1/ 3
ST. JOSEPH                 49 48   60/  6/  8 1014.9R         1/ 3
$$

ILZ025>027-034>036-040-047-049-050-058-095>099-290400-
WEST-CENTRAL ILLINOIS

CITY           SKY/WX    TMP DP  RH WIND       PRES   REMARKS
QUINCY         CLOUDY    56  55  97 CALM      29.91R
GALESBURG*     CLOUDY    52  52  98 N10       29.94R FOG
MACOMB*        CLOUDY    57  55  92 SE7       29.95R
JACKSONVILLE*  CLOUDY    55  54  98 NE6       29.90R FOG
PITTSFIELD*    CLOUDY    56  56  99 N3        29.91R FOG
$$

ILZ028>032-037-038-041>044-048-051>054-059>061-290400-
CENTRAL ILLINOIS

CITY           SKY/WX    TMP DP  RH WIND       PRES   REMARKS
PONTIAC        CLOUDY    56  55  99 E6        29.93R
BLOOMINGTON    CLOUDY    55  53  93 E3        29.93R
DECATUR        CLOUDY    56  56 100 E3        29.89R
PEORIA         CLOUDY    58  55  90 CALM      29.91R
LACON*         CLOUDY    56  54  92 CALM      29.92R
LINCOLN*       CLOUDY    56  56  97 CALM      29.91R FOG
SPRINGFIELD    CLOUDY    57  55  93 N7        29.90R FOG
TAYLORVILLE    CLOUDY    55  55  98 NE5       29.87F
$$

ILZ033-039-045-046-055>057-062-063-290400-
EAST-CENTRAL ILLINOIS

CITY           SKY/WX    TMP DP  RH WIND       PRES   REMARKS
CHAMPAIGN      CLOUDY    55  53  93 E7        29.90R FOG
RANTOUL*       CLOUDY    56  55  98 CALM      29.91S FOG
MATTOON        LGT RAIN  55  55 100 CALM      29.89R
PARIS*         CLOUDY    55  55  99 E3        29.92R THUNDER FOG
$$

ILZ079-100>102-290400-
SOUTHWEST ILLINOIS

CITY           SKY/WX    TMP DP  RH WIND       PRES   REMARKS
ALTON          CLOUDY    55  55 100 E5        29.88R FOG
CAHOKIA*       CLOUDY    59  56  89 CALM      29.86R FOG
SPARTA*        CLOUDY    57  57 100 CALM      29.85F FOG
$$

ILZ064>066-069>071-074>076-080>082-084>086-088>090-092>094-290400-
SOUTH-CENTRAL ILLINOIS

CITY           SKY/WX    TMP DP  RH WIND       PRES   REMARKS
CARBONDALE     LGT RAIN  63  63 100 N7        29.82S
CAIRO*         CLOUDY    73  70  92 SE6       29.78S
EFFINGHAM*     CLOUDY    57  57 100 CALM      29.89S
MARION         LGT RAIN  64  64 100 N8        29.84R
MT. VERNON     CLOUDY    58  58 100 NE5       29.86R FOG
CENTRALIA*     CLOUDY    58  58 100 NE3       29.85S FOG
SALEM*         CLOUDY    59  57  94 NE3       29.86S FOG
METROPOLIS*    PTCLDY    73  70  92 CALM      29.81R FOG
$$

ILZ067-068-072-073-078-083-087-091-290400-
SOUTHEAST ILLINOIS

CITY           SKY/WX    TMP DP  RH WIND       PRES   REMARKS
LAWRENCEVILLE  CLOUDY    59  58  96 VRB6      29.87R FOG
FLORA*         DRIZZLE   58  58  97 N5        29.86F
FAIRFIELD*     CLOUDY    58  58  99 N3        29.85R FOG
HARRISBURG*    TSTM      69  69 100 CALM      29.83R
ROBINSON*      CLOUDY    56  56  99 NE5       29.90R FOG
CARMI*         TSTM      69  69 100 N9        29.83R VSB 3/4
$$

ABBREVIATIONS USED IN REMARKS
   TC - TEMPERATURE IN CELSIUS
  WCI - WIND CHILL INDEX
   HX - HEAT INDEX
  VSB - VISIBILITY
$$





USA.gov is the U.S. government's official web portal to all federal, state and local government web resources and services.